Starlink 31081

operational
NORAD ID: 58632 Int'l Des: 2023-203 Owner: SPXS Country: US Constellation: starlink
LEOCIRCULAR

Über Starlink 31081

Beschreibung wird geladen...

Live-Position

3D-Globus wird geladen...

Nächste Überflüge

Höhenverlauf

Altitude vs Time

uPlot chart will show altitude changes over time

Zweizeiliger Elementsatz

1 58632U 23203Q 25350.86255933 .00003317 00000-0 13004-3 0 9995
2 58632 42.9999 178.3261 0001045 249.5120 110.5620 15.27567325112089
Epoch: 16. Dez. 2025 • Age: 21 hours

Aktueller Status

Höhe 482.7 km
Geschwindigkeit 7.63 km/s
Subsatellitenpunkt 20.61°N, 23.14°W
Startdatum 23. Dez. 2023
Alter 1.9 years
Typ internet

Technische Details

Klassifizierung Payload
Masse 730.00 kg
Trockenmasse 700.00 kg
Gesamtmasse 730.00 kg
Länge 0.30 m
Durchmesser 4.10 m
Spannweite 29.00 m
Form Box + pan
Hersteller SPXS
Bus-Typ Starlink V2M
Phasenstatus In Orbit
Besitzer/Staat SPXS/US

Große Konstellationen

Loading constellations...